Weather History for Cancun, Mexico

Change the Weather History Date:

Tuesday, February 19, 2013

  Actual Average Record
Temperature  
Mean Temperature 72 °F -  
Max Temperature 80 °F 83 °F 87 °F (1999)
Min Temperature 64 °F 65 °F 57 °F (2004)
Cooling Degree Days 7    
Growing Degree Days 22 (Base 50)    
Moisture  
Dew Point 67 °F    
Average Humidity 79    
Maximum Humidity 94    
Minimum Humidity 65    
Precipitation  
Precipitation 0.25 in - - ()
Sea Level Pressure  
Sea Level Pressure 30.06 in    
Wind  
Wind Speed 4 mph ()    
Max Wind Speed 14 mph    
Max Gust Speed -    
Visibility 6.5 miles    
Events Rain    
Averages and records for this station are not official NWS values.
T = Trace of Precipitation, MM = Missing Value Source: Averaged Metar Reports

Daily Weather History Graph

Daily Weather History Graph

Search for Another Location

Airport:

Trip Planner

Search our weather history database for the weather conditions in past years. The results will help you decide how hot, cold, wet, or windy it might be!

Date:

Astronomy

Feb. 19, 2013 Rise Set
Actual Time 6:15 AM CST 5:47 PM CST
Civil Twilight 5:52 AM CST 6:10 PM CST
Nautical Twilight 5:26 AM CST 6:36 PM CST
Astronomical Twilight 5:00 AM CST 7:02 PM CST
Moon 12:41 PM CST (2/19) 1:24 AM CST (2/19)
Length of Visible Light 12h 17m
Length of Day
11h 32m
Waxing Gibbous, 67% of the Moon is Illuminated
Feb 19
Waxing Gibbous
Feb 25
Full
Mar 4
Last Quarter
Mar 11
New
Mar 19
First Quarter

Hourly Weather History & Observations

Time (CST) Temp. Heat Index Dew Point Humidity Pressure Visibility Wind Dir Wind Speed Gust Speed Precip Events Conditions
12:45 AM 71.6 °F - 60.8 °F 69% 30.06 in 7.0 mi SE 6.9 mph - N/A   Clear
1:44 AM 69.8 °F - 60.8 °F 73% 30.04 in 7.0 mi Calm Calm - N/A   Clear
2:46 AM 68.0 °F - 60.8 °F 78% 30.03 in 7.0 mi Calm Calm - N/A   Clear
3:45 AM 66.2 °F - 60.8 °F 83% 30.03 in 7.0 mi NNW 5.8 mph - N/A   Partly Cloudy
4:44 AM 64.4 °F - 60.8 °F 88% 30.03 in 7.0 mi Calm Calm - N/A   Scattered Clouds
5:43 AM 64.4 °F - 60.8 °F 88% 30.05 in 7.0 mi Calm Calm - N/A   Scattered Clouds
6:42 AM 66.2 °F - 60.8 °F 83% 30.07 in 7.0 mi NW 5.8 mph - N/A   Mostly Cloudy
7:46 AM 69.8 °F - 64.4 °F 83% 30.08 in 6.0 mi NNW 3.5 mph - N/A   Mostly Cloudy
8:51 AM 77.0 °F - 68.0 °F 74% 30.10 in 6.0 mi East 8.1 mph - N/A   Mostly Cloudy
9:42 AM 80.6 °F 83.2 °F 68.0 °F 65% 30.11 in 6.0 mi East 9.2 mph - N/A   Mostly Cloudy
10:48 AM 78.8 °F - 68.0 °F 69% 30.11 in 6.0 mi ESE 5.8 mph - N/A   Mostly Cloudy
11:47 AM 80.6 °F 83.9 °F 69.8 °F 70% 30.10 in 6.0 mi ESE 13.8 mph - N/A   Mostly Cloudy
12:47 PM 80.6 °F 83.9 °F 69.8 °F 70% 30.07 in 6.0 mi ESE 10.4 mph - N/A   Mostly Cloudy
1:43 PM 78.8 °F - 69.8 °F 74% 30.05 in 6.0 mi ESE 6.9 mph - N/A   Mostly Cloudy
2:47 PM 80.6 °F 83.9 °F 69.8 °F 70% 30.04 in 7.0 mi NE 6.9 mph - N/A   Mostly Cloudy
3:54 PM 78.8 °F - 69.8 °F 74% 30.04 in 7.0 mi ENE 9.2 mph - N/A   Mostly Cloudy
4:45 PM 78.8 °F - 71.6 °F 78% 30.03 in 7.0 mi East 10.4 mph - N/A   Mostly Cloudy
6:50 PM 77.0 °F - 71.6 °F 83% 30.06 in 7.0 mi ENE 4.6 mph - N/A   Mostly Cloudy
7:44 PM 77.0 °F - 71.6 °F 83% 30.07 in 7.0 mi ESE 4.6 mph - N/A   Mostly Cloudy
8:05 PM 77.0 °F - 71.6 °F 83% 30.08 in 5.0 mi SE 4.6 mph - N/A Rain Light Rain
8:46 PM 75.2 °F - 71.6 °F 89% 30.07 in 6.0 mi East 4.6 mph - N/A   Mostly Cloudy
9:46 PM 75.2 °F - 71.6 °F 89% 30.08 in 6.0 mi East 3.5 mph - N/A   Scattered Clouds
10:46 PM 75.2 °F - 71.6 °F 89% 30.06 in 7.0 mi East 5.8 mph - N/A   Scattered Clouds
11:46 PM 73.4 °F - 71.6 °F 94% 30.03 in 6.0 mi East 3.5 mph - N/A   Scattered Clouds